This demonstration page uses our WeatherBlox Daily Observations layout. Learn more.

Hourly Observations for August 14, 2017

Temp ( °F °C ) Dew Point ( °F °C ) Humidity (%) Winds ( mph kmh ) Pressure ( in mb ) Visibility ( mi km ) Precip ( " mm )
12:54 am 00:54 Clear 72 22.2 66 18.9 82 82 S 9 15 29.8 1009 10 16.0934 0 0
1:54 am 01:54 Clear 72 22.2 66 18.9 82 82 S 10 17 29.79 1009 10 16.0934 0 0
2:54 am 02:54 Clear 71 21.7 67 19.4 87 87 SSW 8 13 29.79 1009 10 16.0934 0 0
3:54 am 03:54 Clear 70 21.1 67 19.4 90 90 S 9 15 29.78 1009 10 16.0934 0 0
4:21 am 04:21 Mostly Cloudy with Nearby Thunderstorms 71 21.7 67 19.4 87 87 SSW 9 15 29.77 1008 10 16.0934 0 0
4:46 am 04:46 Cloudy with Light Thunderstorms 71 21.7 66 18.9 84 84 SW 13 20 29.77 1008 10 16.0934 0 0.0254
4:54 am 04:54 Cloudy with Light Thunderstorms 72 22.2 65 18.3 79 79 NW 14 22 29.83 1010 8 12.87472 0 0.0254
5:05 am 05:05 Cloudy with Heavy Thunderstorms 68 20 65 18.3 90 90 W 26 43 29.83 1010 1.75 2.816345 0.08 2.032
5:16 am 05:16 Cloudy with Heavy Thunderstorms 67 19.4 64 17.8 91 91 SW 15 24 29.83 1010 0.75 1.207005 0.33 8.382
5:22 am 05:22 Cloudy with Thunderstorms 67 19.4 65 18.3 93 93 SSE 14 22 29.8 1009 1.25 2.011675 0.59 14.986
5:26 am 05:26 Cloudy with Light Thunderstorms 68 20 66 18.9 93 93 SSE 13 20 29.8 1009 3 4.82802 0.59 14.986
5:33 am 05:33 Mostly Cloudy with Light Thunderstorms 69 20.6 65 18.3 87 87 SSE 13 20 29.8 1009 9 14.48406 0.6 15.24
5:50 am 05:50 Partly Cloudy with Nearby Thunderstorms 70 21 66 19 88 88 SSE 9 15 29.8 1009 10 16.0934 0.6 15.24
5:54 am 05:54 Partly Cloudy with Nearby Thunderstorms 68 20 66 18.9 93 93 VRB 6 9 29.79 1009 10 16.0934 0.6 15.24
6:03 am 06:03 Mostly Clear 68 20 66 18.9 93 93 SSW 5 7 29.8 1009 10 16.0934 0 0
6:54 am 06:54 Sunny 68 20 66 18.9 93 93 S 5 7 29.78 1009 7 11.26538 0 0
7:54 am 07:54 Sunny with Mist and Fog 70 21.1 68 20 93 93 Calm 29.79 1009 6 9.65604 0 0
8:28 am 08:28 Partly Cloudy 72 22.2 69 20.6 91 91 S 6 9 29.77 1008 7 11.26538 0 0
8:38 am 08:38 Mostly Cloudy 72 22.2 69 20.6 91 91 S 8 13 29.77 1008 8 12.87472 0 0
8:54 am 08:54 Mostly Cloudy 73 22.8 70 21.1 90 90 SSW 8 13 29.79 1009 8 12.87472 0 0
9:49 am 09:49 Partly Cloudy 75 24 70 21 83 83 SW 5 7 29.77 1008 10 16.0934 0 0
9:54 am 09:54 Mostly Sunny 75 23.9 70 21.1 84 84 Calm 29.79 1009 10 16.0934 0 0
10:54 am 10:54 Mostly Cloudy 79 26.1 69 20.6 72 72 NW 8 13 29.8 1009 10 16.0934 0 0
11:14 am 11:14 Partly Cloudy 81 27.2 70 21.1 69 69 VRB 3 6 29.77 1008 10 16.0934 0 0
11:54 am 11:54 Sunny 82 27.8 70 21.1 67 67 NNW 6 9 29.79 1009 10 16.0934 0 0
12:54 pm 12:54 Sunny 85 29.4 70 21.1 61 61 VRB 3 6 29.79 1009 10 16.0934 0 0
1:54 pm 13:54 Sunny 87 30.6 64 17.8 46 46 NNE 6 9 29.8 1009 10 16.0934 0 0
2:54 pm 14:54 Sunny 87 30.6 63 17.2 45 45 NNE 8 13 29.79 1009 10 16.0934 0 0
3:54 pm 15:54 Sunny 86 30 67 19.4 53 53 NNE 9 15 29.77 1008 10 16.0934 0 0
4:54 pm 16:54 Sunny 87 30.6 65 18.3 48 48 NNE 9 15 29.76 1008 10 16.0934 0 0
5:54 pm 17:54 Sunny 85 29.4 65 18.3 51 51 NE 10 17 29.76 1008 10 16.0934 0 0
6:54 pm 18:54 Sunny 83 28.3 64 17.8 53 53 NE 10 17 29.76 1008 10 16.0934 0 0
7:54 pm 19:54 Sunny 80 26.7 67 19.4 64 64 NE 7 11 29.78 1008 10 16.0934 0 0
8:54 pm 20:54 Clear 75 23.9 68 20 79 79 NE 6 9 29.79 1009 10 16.0934 0 0
9:54 pm 21:54 Clear 75 23.9 68 20 79 79 ENE 7 11 29.8 1009 10 16.0934 0 0
10:54 pm 22:54 Mostly Clear 73 22.8 66 18.9 79 79 NNE 6 9 29.81 1009 10 16.0934 0 0
11:54 pm 23:54 Clear 73 22.8 65 18.3 76 76 ENE 9 15 29.8 1009 10 16.0934 0 0

Powered by AerisWeather